Location: Oshawa
(43.9000°N, 78.8670°W)
Time: 07:14:17
(UTC-04:00)

Amateur Radio Satellites - All Passes

Search period start: 24 May 2015 06:44
Search period end: 25 May 2015 06:44
Location: Oshawa, 43.9000°N, 78.8670°W

Satellite Date Start Highest point End Downlink Frequencies (MHz)
Time Altitude Azimuth
SO-50 24 May 06:45:01 06:48:17 17° 326° (NNW) 06:51:29 436.795
HORYU 2 24 May 06:51:47 06:52:44 10° 301° (WNW) 06:53:27 437.375
Cosmos 2491 24 May 07:00:38 07:09:17 56° 75° (ENE) 07:17:54 435.465 / 435.565
STRAND 1 24 May 07:02:58 07:07:57 59° 72° (ENE) 07:12:59 437.568
CUBESAT XI-V 24 May 07:04:25 07:08:59 61° 260° (W) 07:13:34 437.345
M-CUBED/EXP-1 PRIME 24 May 07:09:46 07:14:04 67° 70° (ENE) 07:18:02 437.505
AO-7 24 May 07:13:14 07:20:29 33° 303° (WNW) 07:27:34 29.400- 29.500
AUBIESAT-1 24 May 07:21:08 07:25:24 77° 70° (ENE) 07:29:21 437.475
CUTE-I 24 May 07:45:40 07:51:03 83° 102° (ESE) 07:56:27 437.470
BRITE-PL 24 May 07:50:13 07:51:46 11° 82° (E) 07:53:43 437.365/2234.400
YUBILEINY 24 May 07:55:00 08:03:14 49° 89° (E) 08:11:33 435.215
PHONESAT 2.4 24 May 08:01:09 08:04:29 45° 187° (S) 08:07:48 2401.200-2431.200
Cubesat XI-IV 24 May 08:05:20 08:10:40 67° 288° (WNW) 08:15:59 437.490
GOMX 1 24 May 08:10:27 08:10:50 10° 82° (E) 08:11:38 467.674
VERMONT LUNAR 24 May 08:11:54 08:14:29 22° 200° (SSW) 08:17:04 437.305
RS-15 24 May 08:14:52 08:20:49 18° 100° (E) 08:27:36 29.354- 29.394
AIST 1 24 May 08:16:49 08:20:58 42° 76° (ENE) 08:25:09
PRISM 24 May 08:17:13 08:20:14 19° 267° (W) 08:23:10 437.425
ISS 24 May 08:18:53 08:21:39 25° 223° (SW) 08:24:25 145.825
STRAND 1 24 May 08:44:07 08:47:37 18° 270° (W) 08:50:57 437.568
M-CUBED/EXP-1 PRIME 24 May 08:47:30 08:49:15 12° 264° (W) 08:50:44 437.505
PCSat 24 May 08:53:42 08:55:09 11° 28° (NNE) 08:56:47 145.827
Cosmos 2491 24 May 08:58:05 09:05:51 35° 275° (W) 09:13:21 435.465 / 435.565
AAUSAT CUBESAT 2 24 May 09:09:00 09:09:37 10° 87° (E) 09:10:30 437.432
HO-68 24 May 09:17:57 09:24:21 35° 95° (E) 09:30:48 435.675
Cosmos 2504 24 May 09:19:28 09:23:44 16° 79° (E) 09:28:21 435.465 / 435.565
DOVE 4 24 May 09:23:22 09:28:02 33° 94° (E) 09:32:33 437.250
BRITE-PL 24 May 09:25:34 09:31:19 80° 101° (E) 09:36:52 437.365/2234.400
CINEMA 3 24 May 09:25:51 09:28:49 17° 88° (E) 09:31:53 145.822/145.860
CUTE-I 24 May 09:27:23 09:30:32 16° 301° (WNW) 09:33:28 437.470
TIGRISAT 24 May 09:34:34 09:36:38 13° 61° (ENE) 09:38:54 435.000
CANX-2 24 May 09:36:51 09:40:52 43° 98° (E) 09:44:54 2200.000
Oscar 11 24 May 09:39:08 09:40:11 11° 87° (E) 09:41:29 145.826/435.025
PHONESAT 2.4 24 May 09:39:28 09:42:13 22° 202° (SSW) 09:44:54 2401.200-2431.200
CUTE 1.7 + AOD 2 24 May 09:40:54 09:44:56 43° 98° (E) 09:48:57 437.475
GOMX 1 24 May 09:44:32 09:50:02 78° 101° (E) 09:55:16 467.674
Cubesat XI-IV 24 May 09:48:41 09:49:54 11° 304° (NW) 09:50:48 437.490
YUBILEINY 24 May 09:52:09 10:00:18 40° 290° (WNW) 10:08:20 435.215
UNISAT 6 24 May 09:52:10 09:55:29 20° 65° (ENE) 09:58:54 437.425
AIST 1 24 May 09:55:20 09:58:20 18° 273° (W) 10:01:13
DELFI C3 24 May 09:56:49 09:58:10 12° 88° (E) 09:59:43 145.870
UWE-3 24 May 09:56:55 09:58:52 13° 87° (E) 10:01:00 435.000/436.395/437.385
SEEDS 24 May 10:08:25 10:12:37 73° 102° (ESE) 10:16:47 437.485
FUNcube-1 24 May 10:15:02 10:17:33 15° 89° (E) 10:20:12 145.935
RS-15 24 May 10:20:38 10:31:26 76° 120° (ESE) 10:42:36 29.354- 29.394
COMPASS 1 24 May 10:26:46 10:30:57 87° 290° (WNW) 10:35:05 437.405
BUGSAT 1 24 May 10:30:58 10:33:04 14° 63° (ENE) 10:35:21 437.445
QB50P1 24 May 10:32:14 10:35:26 21° 66° (ENE) 10:38:45 145.935-145.965
POLYITAN 1 24 May 10:32:23 10:35:39 22° 66° (ENE) 10:39:02 437.675
ANTELSAT 24 May 10:34:00 10:38:31 48° 72° (ENE) 10:43:02 437.575/2403.000
PCSat 24 May 10:34:56 10:40:07 44° 51° (NE) 10:45:17 145.827
CUBEBUG 2 24 May 10:37:36 10:41:56 43° 97° (E) 10:46:07 437.445
AAUSAT CUBESAT 2 24 May 10:41:40 10:45:48 69° 286° (WNW) 10:49:54 437.432
ZACube-1 24 May 10:53:03 10:57:11 40° 97° (E) 11:01:13 437.345
DOVE 4 24 May 11:01:06 11:05:44 32° 293° (WNW) 11:10:08 437.250
CINEMA 3 24 May 11:01:44 11:06:30 55° 287° (WNW) 11:11:00 145.822/145.860
UKube-1 24 May 11:01:53 11:05:17 22° 93° (E) 11:08:44 .
NANOSAT C BR1 24 May 11:03:46 11:07:49 43° 71° (ENE) 11:11:55 145.865
BRITE-PL 24 May 11:05:26 11:09:10 18° 299° (WNW) 11:12:39 437.365/2234.400
HO-68 24 May 11:05:28 11:12:18 49° 294° (WNW) 11:19:04 435.675
DX 1 24 May 11:05:47 11:09:30 26° 95° (E) 11:13:14 434.975-435.025
Cosmos 2504 24 May 11:07:45 11:16:11 82° 97° (E) 11:24:04 435.465 / 435.565
TIGRISAT 24 May 11:08:06 11:12:50 80° 259° (WSW) 11:17:31 435.000
VELOX 1 24 May 11:08:44 11:11:11 15° 89° (E) 11:13:49 145.980
QB50P2 24 May 11:09:19 11:13:29 52° 73° (ENE) 11:17:42 145.880/145.840
Oscar 11 24 May 11:12:39 11:16:57 71° 286° (WNW) 11:21:13 145.826/435.025
HUMSAT D 24 May 11:12:50 11:16:30 29° 95° (E) 11:20:10 437.325/437.525
CANX-2 24 May 11:13:34 11:16:32 18° 294° (WNW) 11:19:22 2200.000
CUTE 1.7 + AOD 2 24 May 11:17:37 11:20:34 18° 294° (WNW) 11:23:25 437.475
50 SAT 24 May 11:17:44 11:20:25 18° 92° (E) 11:23:11 437.505
POPSAT HIP 1 24 May 11:22:17 11:26:33 70° 75° (ENE) 11:30:51 437.405
GOMX 1 24 May 11:24:03 11:27:29 17° 299° (WNW) 11:30:40 467.674
DUCHIFAT 1 24 May 11:26:48 11:31:04 77° 74° (ENE) 11:35:22 145.980
UNISAT 6 24 May 11:27:22 11:31:57 50° 261° (W) 11:36:30 437.425
DELFI C3 24 May 11:29:46 11:33:44 58° 286° (WNW) 11:37:40 145.870
UWE-3 24 May 11:31:31 11:35:57 62° 286° (WNW) 11:40:13 435.000/436.395/437.385
AISAT 24 May 11:38:06 11:42:05 31° 96° (E) 11:46:05 437.250
SEEDS 24 May 11:46:19 11:47:54 12° 298° (WNW) 11:49:16 437.485
FUNcube-1 24 May 11:50:01 11:54:17 50° 287° (WNW) 11:58:24 145.935
SO-50 24 May 11:52:33 11:56:30 23° 39° (NE) 12:00:29 436.795
BUGSAT 1 24 May 12:04:01 12:08:05 59° 259° (W) 12:12:15 437.445
QB50P1 24 May 12:07:06 12:11:06 38° 263° (W) 12:15:07 145.935-145.965
POLYITAN 1 24 May 12:07:21 12:11:22 37° 263° (W) 12:15:24 437.675
ANTELSAT 24 May 12:12:10 12:15:35 19° 269° (W) 12:18:50 437.575/2403.000
CUBEBUG 2 24 May 12:14:59 12:18:20 20° 295° (WNW) 12:21:31 437.445
Oscar 19 24 May 12:15:00 12:17:14 13° 58° (ENE) 12:19:41 437.125/150
PCSat 24 May 12:18:41 12:23:24 30° 250° (WSW) 12:28:00 145.827
DANDE 24 May 12:21:16 12:23:23 12° 74° (ENE) 12:26:11 436.750
GONETS M04 24 May 12:27:00 12:31:59 18° 77° (ENE) 12:37:29
ZACube-1 24 May 12:30:00 12:33:18 21° 294° (WNW) 12:36:27 437.345
ESTCUBE 1 24 May 12:34:29 12:39:01 70° 102° (ESE) 12:43:32 437.505/2401.250
RS-15 24 May 12:34:44 12:44:56 40° 327° (NNW) 12:55:24 29.354- 29.394
UKube-1 24 May 12:37:32 12:41:32 36° 291° (WNW) 12:45:30 .
NANOSAT C BR1 24 May 12:40:56 12:43:55 18° 269° (W) 12:46:47 145.865
DX 1 24 May 12:41:51 12:45:45 31° 292° (WNW) 12:49:36 434.975-435.025
TISAT 1 24 May 12:41:57 12:44:23 15° 90° (E) 12:46:59 437.305
VELOX 1 24 May 12:43:45 12:48:11 57° 287° (WNW) 12:52:33 145.980
QB50P2 24 May 12:47:10 12:49:46 15° 271° (W) 12:52:11 145.880/145.840
HUMSAT D 24 May 12:48:42 12:52:10 25° 292° (WNW) 12:55:31 437.325/437.525
CUBEBUG 1 24 May 12:50:40 12:55:09 90° 288° (WNW) 12:59:36 437.445
50 SAT 24 May 12:51:43 12:55:18 34° 289° (WNW) 12:58:48 437.505
HO-68 24 May 12:56:52 12:58:31 11° 314° (NW) 12:59:45 435.675
POPSAT HIP 1 24 May 13:01:34 13:03:00 11° 273° (W) 13:04:10 437.405
Cosmos 2504 24 May 13:04:18 13:10:34 22° 297° (WNW) 13:16:16 435.465 / 435.565
CUSAT 1 24 May 13:07:53 13:14:13 36° 87° (E) 13:21:32 437.405
AISAT 24 May 13:14:44 13:18:36 28° 293° (WNW) 13:22:24 437.250
SO-50 24 May 13:32:34 13:37:31 66° 239° (WSW) 13:42:22 436.795
SPROUT 24 May 13:41:11 13:45:34 90° 285° (WNW) 13:49:54 437.525
ITUPSAT 1 24 May 13:44:46 13:46:28 12° 87° (E) 13:48:28 437.325
Oscar 19 24 May 13:50:40 13:55:53 86° 71° (ENE) 14:01:08 437.125/150
BEESAT 24 May 13:53:36 13:56:18 15° 89° (E) 13:59:13 436.000
DANDE 24 May 13:58:08 14:04:52 62° 94° (E) 14:13:05 436.750
ITAMSAT 1 24 May 13:58:53 14:03:26 33° 67° (ENE) 14:08:05 435.822/435.867
SWISSCUBE 24 May 14:01:03 14:04:29 20° 91° (E) 14:08:03 437.505
ESTCUBE 1 24 May 14:12:58 14:15:23 14° 298° (WNW) 14:17:38 437.505/2401.250
TISAT 1 24 May 14:16:21 14:20:32 51° 288° (WNW) 14:24:39 437.305
GONETS M04 24 May 14:18:47 14:27:38 84° 95° (E) 14:36:32
Gurwin Techsat 1B 24 May 14:18:52 14:23:53 46° 70° (ENE) 14:28:59 435.225
CUBEBUG 1 24 May 14:29:43 14:30:52 11° 300° (WNW) 14:31:49 437.445
AO-7 24 May 14:30:20 14:36:27 24° 52° (NE) 14:42:49 29.400- 29.500
HORYU 2 24 May 14:38:23 14:40:02 12° 61° (ENE) 14:41:52 437.375
JAS-2 24 May 14:43:03 14:47:30 20° 62° (ENE) 14:51:48 435.910
CUSAT 1 24 May 14:49:34 14:56:38 53° 288° (WNW) 15:04:43 437.405
RS-15 24 May 14:52:36 15:01:27 26° 0° (N) 15:10:38 29.354- 29.394
ITUPSAT 1 24 May 15:20:15 15:25:03 78° 285° (WNW) 15:29:50 437.325
SPROUT 24 May 15:20:21 15:21:01 10° 300° (WNW) 15:21:27 437.525
BEESAT 24 May 15:29:55 15:34:39 61° 287° (WNW) 15:39:20 436.000
Oscar 19 24 May 15:33:53 15:36:03 12° 274° (W) 15:37:53 437.125/150
SWISSCUBE 24 May 15:38:03 15:42:38 47° 289° (WNW) 15:47:12 437.505
ITAMSAT 1 24 May 15:38:17 15:42:57 33° 264° (W) 15:47:35 435.822/435.867
DANDE 24 May 15:42:24 15:48:48 32° 297° (WNW) 15:56:01 436.750
Cosmos 2499 24 May 15:45:30 15:53:31 60° 93° (E) 16:00:59 435.465 / 435.565
STARS 24 May 15:55:23 15:59:18 30° 96° (E) 16:03:12 437.465
Gurwin Techsat 1B 24 May 15:59:49 16:04:08 24° 268° (W) 16:08:22 435.225
HORYU 2 24 May 16:11:35 16:16:06 81° 259° (W) 16:20:37 437.375
GONETS M04 24 May 16:18:54 16:25:47 23° 300° (WNW) 16:32:21
AO-7 24 May 16:20:03 16:28:21 88° 250° (WSW) 16:36:45 29.400- 29.500
KKS-1 24 May 16:20:06 16:24:38 87° 104° (ESE) 16:29:06 437.445
JAS-2 24 May 16:25:20 16:32:12 76° 257° (WSW) 16:38:16 435.910
CUSAT 1 24 May 16:38:09 16:41:40 13° 312° (NW) 16:44:52 437.405
O/OREOS (USA 219) 24 May 16:43:16 16:47:42 58° 109° (ESE) 16:52:08 437.305
ITUPSAT 1 24 May 17:01:19 17:02:12 10° 302° (WNW) 17:02:50 437.325
RS-15 24 May 17:07:32 17:18:03 40° 33° (NNE) 17:29:08 29.354- 29.394
MOZHAYETS 4 24 May 17:28:48 17:33:05 39° 97° (E) 17:37:22
CUTE-I 24 May 17:30:44 17:34:42 23° 63° (ENE) 17:38:49 437.470
STARS 24 May 17:31:52 17:35:41 28° 293° (WNW) 17:39:24 437.465
Cosmos 2499 24 May 17:40:11 17:47:09 30° 292° (WNW) 17:53:34 435.465 / 435.565
Cubesat XI-IV 24 May 17:49:40 17:54:18 32° 66° (ENE) 17:59:02 437.490
KKS-1 24 May 17:59:09 18:00:38 11° 300° (WNW) 18:01:54 437.445
YUBILEINY 24 May 18:03:34 18:10:24 26° 62° (ENE) 18:17:29 435.215
Cosmos 2491 24 May 18:14:54 18:16:28 11° 73° (ENE) 18:18:47 435.465 / 435.565
JAS-2 24 May 18:15:41 18:18:12 12° 274° (W) 18:20:10 435.910
AO-7 24 May 18:16:48 18:22:28 19° 273° (W) 18:27:43 29.400- 29.500
O/OREOS (USA 219) 24 May 18:24:26 18:27:33 18° 309° (NW) 18:30:33 437.305
BEESAT 3 24 May 18:34:33 18:37:37 21° 113° (ESE) 18:40:46 437.485
CUBESAT XI-V 24 May 18:59:53 19:03:59 30° 94° (E) 19:08:09 437.345
BRITE-PL 24 May 19:01:49 19:04:36 15° 59° (ENE) 19:07:42 437.365/2234.400
MOZHAYETS 4 24 May 19:06:30 19:10:07 23° 294° (WNW) 19:13:38
CUTE-I 24 May 19:09:16 19:14:27 54° 260° (W) 19:19:41 437.470
STRAND 1 24 May 19:13:06 19:16:27 18° 90° (E) 19:20:00 437.568
GOMX 1 24 May 19:18:29 19:21:05 14° 59° (ENE) 19:23:57 467.674
BEESAT 2 24 May 19:18:33 19:22:30 48° 119° (ESE) 19:26:32 435.950
RS-15 24 May 19:20:10 19:31:48 80° 239° (WSW) 19:43:53 29.354- 29.394
Cubesat XI-IV 24 May 19:29:30 19:34:22 35° 264° (W) 19:39:14 437.490
HO-68 24 May 19:48:21 19:54:26 32° 60° (ENE) 20:00:38 435.675
PRISM 24 May 19:56:42 20:00:44 50° 100° (E) 20:04:48 437.425
YUBILEINY 24 May 19:59:35 20:08:16 75° 265° (W) 20:16:55 435.215
Cosmos 2491 24 May 20:03:06 20:11:38 61° 92° (E) 20:20:19 435.465 / 435.565
BEESAT 3 24 May 20:11:28 20:15:22 41° 311° (NW) 20:19:18 437.485
M-CUBED/EXP-1 PRIME 24 May 20:24:48 20:27:50 33° 103° (ESE) 20:30:52 437.505
CINEMA 3 24 May 20:28:29 20:32:05 21° 64° (ENE) 20:35:50 145.822/145.860
AIST 2 24 May 20:28:56 20:33:11 77° 123° (ESE) 20:37:30 435.215
DOVE 4 24 May 20:29:38 20:34:20 39° 69° (ENE) 20:39:15 437.250
CANX-2 24 May 20:31:04 20:35:00 37° 71° (ENE) 20:38:57 2200.000
CUTE 1.7 + AOD 2 24 May 20:35:03 20:38:58 37° 71° (ENE) 20:42:55 437.475
AUBIESAT-1 24 May 20:35:28 20:38:36 38° 104° (ESE) 20:41:43 437.475
Oscar 11 24 May 20:35:42 20:37:08 12° 62° (ENE) 20:38:47 145.826/435.025
CUBESAT XI-V 24 May 20:37:17 20:41:25 31° 291° (WNW) 20:45:30 437.345
BRITE-PL 24 May 20:37:19 20:42:21 84° 257° (WSW) 20:47:50 437.365/2234.400
AIST 1 24 May 20:48:26 20:51:44 23° 89° (E) 20:55:08
STRAND 1 24 May 20:51:03 20:56:08 60° 288° (WNW) 21:01:11 437.568
GOMX 1 24 May 20:53:20 20:58:25 89° 253° (WSW) 21:03:52 467.674
UWE-3 24 May 20:55:16 20:57:55 15° 63° (ENE) 21:00:43 435.000/436.395/437.385
BEESAT 2 24 May 20:57:34 21:00:51 22° 318° (NW) 21:04:05 435.950
Cosmos 2504 24 May 20:59:22 21:05:29 29° 67° (ENE) 21:11:40 435.465 / 435.565
SEEDS 24 May 21:01:33 21:05:43 60° 74° (ENE) 21:09:54 437.485
FUNcube-1 24 May 21:12:08 21:15:02 17° 64° (ENE) 21:18:04 145.935
COMPASS 1 24 May 21:19:01 21:23:12 76° 76° (ENE) 21:27:24 437.405
PRISM 24 May 21:33:14 21:35:51 16° 296° (WNW) 21:38:20 437.425
AAUSAT CUBESAT 2 24 May 21:33:26 21:37:37 87° 259° (W) 21:41:49 437.432
RS-15 24 May 21:34:35 21:42:47 21° 259° (WSW) 21:50:27 29.354- 29.394
HO-68 24 May 21:34:48 21:41:52 57° 259° (W) 21:48:56 435.675
CUBEBUG 2 24 May 21:36:35 21:41:07 45° 71° (ENE) 21:45:41 437.445
ZACube-1 24 May 21:49:56 21:54:12 39° 71° (ENE) 21:58:31 437.345
UKube-1 24 May 21:58:13 22:01:38 24° 66° (ENE) 22:05:08 .
YUBILEINY 24 May 21:59:13 22:03:44 15° 284° (WNW) 22:07:40 435.215
M-CUBED/EXP-1 PRIME 24 May 22:00:30 22:02:31 15° 300° (WNW) 22:04:24 437.505
Cosmos 2491 24 May 22:01:22 22:09:08 33° 294° (WNW) 22:16:47 435.465 / 435.565
DX 1 24 May 22:02:48 22:06:29 28° 68° (ENE) 22:10:16 434.975-435.025
CINEMA 3 24 May 22:04:01 22:08:53 54° 261° (W) 22:13:51 145.822/145.860
50 SAT 24 May 22:04:34 22:06:43 15° 65° (ENE) 22:09:00 437.505
HUMSAT D 24 May 22:05:56 22:09:33 27° 68° (ENE) 22:13:14 437.325/437.525
DOVE 4 24 May 22:07:48 22:12:11 28° 268° (W) 22:16:40 437.250
CANX-2 24 May 22:07:49 22:11:04 20° 268° (W) 22:14:14 2200.000
VELOX 1 24 May 22:07:56 22:10:42 17° 63° (ENE) 22:13:38 145.980
Oscar 11 24 May 22:08:26 22:12:46 78° 258° (WSW) 22:17:08 145.826/435.025
AIST 2 24 May 22:09:25 22:12:19 17° 322° (NW) 22:15:08 435.215
AUBIESAT-1 24 May 22:11:27 22:13:08 13° 301° (WNW) 22:14:41 437.475
CUTE 1.7 + AOD 2 24 May 22:11:47 22:15:02 20° 268° (W) 22:18:12 437.475
CUBEBUG 1 24 May 22:16:09 22:16:35 10° 60° (ENE) 22:17:15 437.445
DELFI C3 24 May 22:18:05 22:22:07 82° 255° (WSW) 22:26:11 145.870
BRITE-PL 24 May 22:20:45 22:21:57 11° 278° (W) 22:22:49 437.365/2234.400
AIST 1 24 May 22:25:27 22:29:16 30° 286° (WNW) 22:33:04
UWE-3 24 May 22:29:17 22:33:57 67° 258° (WSW) 22:38:39 435.000/436.395/437.385
GOMX 1 24 May 22:35:34 22:37:30 12° 277° (W) 22:39:08 467.674
AISAT 24 May 22:37:14 22:41:11 33° 69° (ENE) 22:45:14 437.250
SEEDS 24 May 22:39:58 22:41:59 13° 272° (W) 22:43:46 437.485
FUNcube-1 24 May 22:46:26 22:50:58 56° 260° (W) 22:55:30 145.935
Cosmos 2504 24 May 22:52:18 22:59:19 53° 268° (W) 23:06:12 435.465 / 435.565
DANDE 24 May 22:58:10 23:01:44 14° 48° (NE) 23:05:30 436.750
TIGRISAT 24 May 22:59:41 23:02:44 19° 91° (E) 23:05:52 435.000
POPSAT HIP 1 24 May 23:09:05 23:09:40 10° 86° (E) 23:10:32 437.405
DUCHIFAT 1 24 May 23:12:34 23:13:46 11° 87° (E) 23:15:14 145.980
CUBEBUG 2 24 May 23:14:22 23:18:02 21° 269° (W) 23:21:36 437.445
UNISAT 6 24 May 23:18:24 23:22:17 30° 95° (E) 23:26:08 437.425
ZACube-1 24 May 23:27:03 23:30:43 22° 268° (W) 23:34:18 437.345
UKube-1 24 May 23:33:39 23:37:38 34° 263° (W) 23:41:36 .
ESTCUBE 1 24 May 23:35:19 23:39:47 75° 75° (ENE) 23:44:16 437.505/2401.250
TISAT 1 24 May 23:36:00 23:38:20 15° 63° (ENE) 23:40:49 437.305
50 SAT 24 May 23:37:08 23:41:04 51° 261° (W) 23:44:59 437.505
DX 1 24 May 23:38:53 23:42:42 29° 265° (W) 23:46:30 434.975-435.025
HUMSAT D 24 May 23:41:24 23:45:14 30° 265° (W) 23:49:01 437.325/437.525
VELOX 1 24 May 23:42:33 23:46:53 54° 260° (W) 23:51:16 145.980
CUSAT 1 24 May 23:45:29 23:52:02 30° 62° (ENE) 23:57:37 437.405
BUGSAT 1 24 May 23:45:40 23:48:38 19° 91° (E) 23:51:42 437.445
CUBEBUG 1 24 May 23:47:56 23:52:17 88° 86° (E) 23:56:43 437.445
QB50P1 24 May 23:50:48 23:54:36 30° 95° (E) 23:58:24 145.935-145.965
POLYITAN 1 24 May 23:51:22 23:55:12 31° 96° (E) 23:59:02 437.675
ANTELSAT 25 May 00:01:18 00:05:46 87° 103° (ESE) 00:10:05 437.575/2403.000
AISAT 25 May 00:14:07 00:17:50 25° 266° (W) 00:21:31 437.250
NANOSAT C BR1 25 May 00:22:47 00:27:04 68° 101° (E) 00:31:19 145.865
GONETS M04 25 May 00:27:39 00:35:58 45° 71° (ENE) 00:44:17
QB50P2 25 May 00:28:55 00:33:15 82° 103° (ESE) 00:37:31 145.880/145.840
TIGRISAT 25 May 00:35:34 00:39:46 42° 289° (WNW) 00:43:50 435.000
SPROUT 25 May 00:36:23 00:40:42 82° 76° (ENE) 00:45:04 437.525
DANDE 25 May 00:39:12 00:47:19 58° 73° (ENE) 00:53:55 436.750
POPSAT HIP 1 25 May 00:41:51 00:46:11 75° 284° (WNW) 00:50:26 437.405
DUCHIFAT 1 25 May 00:45:53 00:50:09 69° 285° (WNW) 00:54:23 145.980
ITUPSAT 1 25 May 00:52:32 00:55:39 18° 63° (ENE) 00:58:54 437.325
UNISAT 6 25 May 00:55:15 00:59:01 27° 292° (WNW) 01:02:38 437.425
ISS 25 May 00:58:20 01:01:25 42° 142° (SE) 01:04:32 145.825
BEESAT 25 May 01:01:18 01:04:51 22° 65° (ENE) 01:08:32 436.000
SWISSCUBE 25 May 01:08:56 01:12:53 27° 67° (ENE) 01:16:55 437.505
TISAT 1 25 May 01:09:30 01:13:41 57° 260° (W) 01:17:54 437.305
O/OREOS (USA 219) 25 May 01:13:30 01:16:28 17° 51° (NE) 01:19:32 437.305
ESTCUBE 1 25 May 01:15:51 01:17:18 11° 273° (W) 01:18:28 437.505/2401.250
PCSat 25 May 01:18:36 01:23:08 29° 110° (ESE) 01:27:46 145.827
BUGSAT 1 25 May 01:20:16 01:24:19 42° 289° (WNW) 01:28:20 437.445
QB50P1 25 May 01:26:47 01:30:23 26° 292° (WNW) 01:33:53 145.935-145.965
POLYITAN 1 25 May 01:27:26 01:31:00 25° 293° (WNW) 01:34:28 437.675
CUSAT 1 25 May 01:27:54 01:35:18 55° 268° (W) 01:41:08 437.405
Cosmos 2499 25 May 01:35:55 01:40:47 20° 62° (ENE) 01:45:54 435.465 / 435.565
ANTELSAT 25 May 01:40:43 01:41:54 11° 300° (WNW) 01:42:51 437.575/2403.000
KKS-1 25 May 01:46:31 01:47:49 11° 60° (ENE) 01:49:20 437.445
NANOSAT C BR1 25 May 02:00:20 02:02:25 13° 298° (WNW) 02:04:18 145.865
Oscar 19 25 May 02:01:24 02:05:44 27° 93° (E) 02:10:08 437.125/150
QB50P2 25 May 02:07:14 02:08:33 11° 299° (WNW) 02:09:40 145.880/145.840
DANDE 25 May 02:23:10 02:30:01 31° 276° (W) 02:35:41 436.750
GONETS M04 25 May 02:24:41 02:32:50 43° 272° (W) 02:40:48
ITUPSAT 1 25 May 02:28:28 02:33:09 57° 260° (W) 02:37:52 437.325
Gurwin Techsat 1B 25 May 02:34:46 02:37:55 16° 88° (E) 02:41:18 435.225
ISS 25 May 02:34:53 02:37:54 34° 340° (NNW) 02:40:57 145.825
BEESAT 25 May 02:37:53 02:42:27 45° 261° (W) 02:47:01 436.000
SWISSCUBE 25 May 02:46:18 02:50:39 35° 264° (W) 02:54:59 437.505
BEESAT 3 25 May 02:51:15 02:54:34 23° 43° (NE) 02:57:54 437.485
O/OREOS (USA 219) 25 May 02:51:55 02:56:19 57° 250° (WSW) 03:00:41 437.305
STARS 25 May 02:53:35 02:57:30 32° 69° (ENE) 03:01:30 437.465
PCSat 25 May 03:01:09 03:06:22 46° 308° (NW) 03:11:36 145.827
AIST 2 25 May 03:12:19 03:14:25 13° 34° (NE) 03:16:35 435.215
KKS-1 25 May 03:19:21 03:23:50 87° 256° (WSW) 03:28:22 437.445
Cosmos 2499 25 May 03:27:48 03:34:54 76° 264° (W) 03:41:59 435.465 / 435.565
BEESAT 2 25 May 03:36:27 03:40:27 47° 50° (NE) 03:44:24 435.950
Oscar 19 25 May 03:40:25 03:45:13 39° 292° (WNW) 03:49:58 437.125/150
SO-50 25 May 03:48:34 03:52:36 30° 115° (ESE) 03:56:50 436.795
ITAMSAT 1 25 May 03:48:53 03:54:08 79° 103° (ESE) 03:59:22 435.822/435.867
HORYU 2 25 May 04:02:34 04:05:27 17° 91° (E) 04:08:27 437.375
VERMONT LUNAR 25 May 04:02:39 04:05:26 27° 163° (SSE) 04:08:14 437.305
PHONESAT 2.4 25 May 04:05:01 04:06:46 14° 152° (SSE) 04:08:36 2401.200-2431.200
ISS 25 May 04:12:26 04:14:58 20° 360° (N) 04:17:30 145.825
Gurwin Techsat 1B 25 May 04:13:12 04:18:30 69° 287° (WNW) 04:23:47 435.225
AO-7 25 May 04:20:42 04:27:35 29° 93° (E) 04:34:41 29.400- 29.500
BEESAT 3 25 May 04:28:50 04:32:43 42° 242° (WSW) 04:36:31 437.485
STARS 25 May 04:30:14 04:33:59 26° 266° (W) 04:37:42 437.465
MOZHAYETS 4 25 May 04:31:59 04:36:19 43° 71° (ENE) 04:40:40
PCSat 25 May 04:49:25 04:51:17 11° 331° (NNW) 04:52:59 145.827
AIST 2 25 May 04:49:31 04:53:46 76° 54° (NE) 04:57:56 435.215
BEESAT 2 25 May 05:15:20 05:18:14 18° 248° (WSW) 05:20:59 435.950
JAS-2 25 May 05:18:11 05:23:25 84° 103° (ESE) 05:28:42 435.910
Cosmos 2499 25 May 05:24:21 05:26:54 12° 282° (WNW) 05:28:58 435.465 / 435.565
SO-50 25 May 05:28:35 05:33:03 39° 314° (NW) 05:37:38 436.795
ITAMSAT 1 25 May 05:29:56 05:33:04 16° 300° (WNW) 05:36:00 435.822/435.867
HORYU 2 25 May 05:38:08 05:42:24 48° 289° (WNW) 05:46:39 437.375
VERMONT LUNAR 25 May 05:39:15 05:42:20 45° 179° (S) 05:45:25 437.305
PHONESAT 2.4 25 May 05:41:09 05:44:22 36° 167° (SSE) 05:47:36 2401.200-2431.200
ISS 25 May 05:49:02 05:52:03 33° 19° (NNE) 05:55:04 145.825
Gurwin Techsat 1B 25 May 05:56:25 05:57:37 11° 304° (NW) 05:58:32 435.225
CUBESAT XI-V 25 May 06:04:41 06:08:47 34° 69° (ENE) 06:12:59 437.345
Cubesat XI-IV 25 May 06:08:06 06:08:57 10° 85° (E) 06:10:11 437.490
MOZHAYETS 4 25 May 06:10:22 06:13:47 20° 269° (W) 06:17:05
Cosmos 2491 25 May 06:11:57 06:19:37 33° 66° (ENE) 06:27:24 435.465 / 435.565
AO-7 25 May 06:12:47 06:21:05 68° 293° (WNW) 06:29:20 29.400- 29.500
STRAND 1 25 May 06:30:05 06:34:26 30° 66° (ENE) 06:38:53 437.568
AIST 2 25 May 06:30:18 06:31:47 11° 251° (WSW) 06:33:04 435.215
